Weather History for Ukiah, CA

Change the Weather History Date:

Monday, October 28, 2013

  Actual Average Record
Temperature  
Mean Temperature 54 °F 57 °F  
Max Temperature 65 °F 71 °F 92 °F (2003)
Min Temperature 42 °F 42 °F 26 °F (1946)
Degree Days  
Heating Degree Days 12 8  
Month to date heating degree days 139  
Since 1 July heating degree days 172  
Cooling Degree Days 0 0  
Month to date cooling degree days 19  
Year to date cooling degree days 832  
Growing Degree Days 3 (Base 50)    
Moisture  
Dew Point 40 °F    
Average Humidity 63    
Maximum Humidity 89    
Minimum Humidity 37    
Precipitation  
Precipitation 0.00 in 0.15 in 2.61 in (1981)
Month to date precipitation 0.00 1.68  
Year to date precipitation 6.16 25.65  
Since 1 July precipitation 0.58 2.27  
Snow  
Snow 0.00 in - - ()
Month to date snowfall 0.0  
Since 1 July snowfall 0.0  
Since 1 September snowfall 0.0  
Snow Depth -    
Sea Level Pressure  
Sea Level Pressure 29.71 in    
Wind  
Wind Speed 3 mph (NNW)    
Max Wind Speed 14 mph    
Max Gust Speed 21 mph    
Visibility 10 miles    
Events      
T = Trace of Precipitation, MM = Missing Value Source: NWS Daily Summary

Daily Weather History Graph

Daily Weather History Graph

Search for Another Location

Airport:

Trip Planner

Search our weather history database for the weather conditions in past years. The results will help you decide how hot, cold, wet, or windy it might be!

Date:

Astronomy

Oct. 28, 2013 Rise Set
Actual Time 7:36 AM PDT 6:16 PM PDT
Civil Twilight 7:08 AM PDT 6:43 PM PDT
Nautical Twilight 6:37 AM PDT 7:15 PM PDT
Astronomical Twilight 6:06 AM PDT 7:46 PM PDT
Moon 1:37 AM PDT (10/28) 2:58 PM PDT (10/28)
Length of Visible Light 11h 34m
Length of Day
10h 39m
Waning Crescent, 33% of the Moon is Illuminated
Oct 28
Waning Crescent
Nov 3
New
Nov 9
First Quarter
Nov 17
Full
Nov 25
Last Quarter

Hourly Weather History & Observations

Time (PDT) Temp. Windchill Dew Point Humidity Pressure Visibility Wind Dir Wind Speed Gust Speed Precip Events Conditions
12:56 AM 52.0 °F - 39.9 °F 63% 29.69 in 10.0 mi Variable 5.8 mph - N/A   Clear
1:56 AM 52.0 °F - 39.9 °F 63% 29.69 in 10.0 mi Calm Calm - N/A   Clear
2:56 AM 48.9 °F - 41.0 °F 74% 29.69 in 10.0 mi Calm Calm - N/A   Partly Cloudy
3:56 AM 44.1 °F - 39.0 °F 82% 29.68 in 10.0 mi Calm Calm - N/A   Clear
4:56 AM 45.0 °F - 39.9 °F 82% 29.68 in 10.0 mi Calm Calm - N/A   Clear
5:56 AM 44.1 °F - 39.0 °F 82% 29.68 in 10.0 mi Calm Calm - N/A   Clear
6:56 AM 45.0 °F - 39.9 °F 82% 29.69 in 10.0 mi Calm Calm - N/A   Clear
7:56 AM 42.1 °F - 39.0 °F 89% 29.70 in 10.0 mi Calm Calm - N/A   Clear
8:56 AM 46.9 °F - 39.9 °F 77% 29.72 in 10.0 mi Calm Calm - N/A   Clear
9:56 AM 52.0 °F - 41.0 °F 66% 29.72 in 10.0 mi Calm Calm - N/A   Partly Cloudy
10:56 AM 55.9 °F - 39.9 °F 55% 29.72 in 10.0 mi Calm Calm - N/A   Clear
11:56 AM 59.0 °F - 39.0 °F 48% 29.70 in 10.0 mi ENE 4.6 mph - N/A   Clear
12:56 PM 62.1 °F - 39.0 °F 43% 29.68 in 10.0 mi North 6.9 mph - N/A   Clear
1:56 PM 64.0 °F - 37.9 °F 38% 29.66 in 10.0 mi NNW 10.4 mph - N/A   Clear
2:56 PM 64.0 °F - 39.9 °F 41% 29.66 in 10.0 mi NNW 10.4 mph - N/A   Partly Cloudy
3:56 PM 64.0 °F - 39.9 °F 41% 29.67 in 10.0 mi North 10.4 mph - N/A   Clear
4:56 PM 63.0 °F - 41.0 °F 45% 29.68 in 10.0 mi Variable 5.8 mph - N/A   Clear
5:56 PM 57.9 °F - 42.1 °F 56% 29.70 in 10.0 mi North 4.6 mph - N/A   Clear
6:56 PM 52.0 °F - 42.1 °F 69% 29.72 in 10.0 mi Calm Calm - N/A   Clear
7:56 PM 48.9 °F - 42.1 °F 77% 29.75 in 10.0 mi Calm Calm - N/A   Clear
8:56 PM 50.0 °F - 41.0 °F 71% 29.77 in 10.0 mi NW 3.5 mph - N/A   Clear
9:56 PM 46.9 °F - 41.0 °F 80% 29.79 in 10.0 mi Calm Calm - N/A   Clear
10:56 PM 46.0 °F - 39.9 °F 79% 29.81 in 10.0 mi Calm Calm - N/A   Clear
11:56 PM 45.0 °F 42.6 °F 39.9 °F 82% 29.83 in 10.0 mi West 4.6 mph - N/A   Clear